Year,Month,Day,Hour,Minute,Value (Times are PST for temperature in C)
2021,04,16,00,00,10.70
2021,04,16,00,01,10.70
2021,04,16,00,02,10.60
2021,04,16,00,03,10.60
2021,04,16,00,04,10.60
2021,04,16,00,05,10.60
2021,04,16,00,06,10.60
2021,04,16,00,07,10.60
2021,04,16,00,08,10.60
2021,04,16,00,09,10.60
2021,04,16,00,10,10.60
2021,04,16,00,11,10.50
2021,04,16,00,12,10.50
2021,04,16,00,13,10.40
2021,04,16,00,14,10.40
2021,04,16,00,15,10.40
2021,04,16,00,16,10.40
2021,04,16,00,17,10.30
2021,04,16,00,18,10.30
2021,04,16,00,19,10.30
2021,04,16,00,20,10.30
2021,04,16,00,21,10.30
2021,04,16,00,22,10.30
2021,04,16,00,23,10.30
2021,04,16,00,24,10.30
2021,04,16,00,25,10.30
2021,04,16,00,26,10.30
2021,04,16,00,27,10.30
2021,04,16,00,28,10.30
2021,04,16,00,29,10.30
2021,04,16,00,30,10.30
2021,04,16,00,31,10.30
2021,04,16,00,32,10.30
2021,04,16,00,33,10.30
2021,04,16,00,34,10.30
2021,04,16,00,35,10.30
2021,04,16,00,36,10.20
2021,04,16,00,37,10.20
2021,04,16,00,38,10.20
2021,04,16,00,39,10.20
2021,04,16,00,40,10.20
2021,04,16,00,41,10.20
2021,04,16,00,42,10.20
2021,04,16,00,43,10.10
2021,04,16,00,44,10.10
2021,04,16,00,45,10.10
2021,04,16,00,46,10.10
2021,04,16,00,47,10.10
2021,04,16,00,48,10.00
2021,04,16,00,49,10.00
2021,04,16,00,50,10.00
2021,04,16,00,51,10.00
2021,04,16,00,52,9.90
2021,04,16,00,53,9.90
2021,04,16,00,54,9.90
2021,04,16,00,55,9.90
2021,04,16,00,56,9.90
2021,04,16,00,57,9.90
2021,04,16,00,58,9.80
2021,04,16,00,59,9.80
2021,04,16,01,00,9.80
2021,04,16,01,01,9.80
2021,04,16,01,02,9.80
2021,04,16,01,03,9.80
2021,04,16,01,04,9.80
2021,04,16,01,05,9.80
2021,04,16,01,06,9.80
2021,04,16,01,07,9.80
2021,04,16,01,08,9.80
2021,04,16,01,09,9.80
2021,04,16,01,10,9.80
2021,04,16,01,11,9.80
2021,04,16,01,12,9.70
2021,04,16,01,13,9.70
2021,04,16,01,14,9.70
2021,04,16,01,15,9.70
2021,04,16,01,16,9.70
2021,04,16,01,17,9.70
2021,04,16,01,18,9.70
2021,04,16,01,19,9.60
2021,04,16,01,20,9.60
2021,04,16,01,21,9.60
2021,04,16,01,22,9.60
2021,04,16,01,23,9.60
2021,04,16,01,24,9.60
2021,04,16,01,25,9.60
2021,04,16,01,26,9.50
2021,04,16,01,27,9.50
2021,04,16,01,28,9.50
2021,04,16,01,29,9.50
2021,04,16,01,30,9.50
2021,04,16,01,31,9.50
2021,04,16,01,32,9.50
2021,04,16,01,33,9.50
2021,04,16,01,34,9.40
2021,04,16,01,35,9.40
2021,04,16,01,36,9.40
2021,04,16,01,37,9.40
2021,04,16,01,38,9.30
2021,04,16,01,39,9.30
2021,04,16,01,40,9.30
2021,04,16,01,41,9.30
2021,04,16,01,42,9.30
2021,04,16,01,43,9.30
2021,04,16,01,44,9.30
2021,04,16,01,45,9.30
2021,04,16,01,46,9.30
2021,04,16,01,47,9.30
2021,04,16,01,48,9.30
2021,04,16,01,49,9.30
2021,04,16,01,50,9.20
2021,04,16,01,51,9.20
2021,04,16,01,52,9.20
2021,04,16,01,53,9.20
2021,04,16,01,54,9.20
2021,04,16,01,55,9.20
2021,04,16,01,56,9.20
2021,04,16,01,57,9.20
2021,04,16,01,58,9.20
2021,04,16,01,59,9.20
2021,04,16,02,00,9.20
2021,04,16,02,01,9.20
2021,04,16,02,02,9.20
2021,04,16,02,03,9.20
2021,04,16,02,04,9.20
2021,04,16,02,05,9.10
2021,04,16,02,06,9.10
2021,04,16,02,07,9.10
2021,04,16,02,08,9.10
2021,04,16,02,09,9.10
2021,04,16,02,10,9.20
2021,04,16,02,11,9.20
2021,04,16,02,12,9.20
2021,04,16,02,13,9.30
2021,04,16,02,14,9.30
2021,04,16,02,15,9.30
2021,04,16,02,16,9.30
2021,04,16,02,17,9.30
2021,04,16,02,18,9.30
2021,04,16,02,19,9.20
2021,04,16,02,20,9.20
2021,04,16,02,21,9.20
2021,04,16,02,22,9.30
2021,04,16,02,23,9.30
2021,04,16,02,24,9.30
2021,04,16,02,25,9.30
2021,04,16,02,26,9.30
2021,04,16,02,27,9.30
2021,04,16,02,28,9.30
2021,04,16,02,29,9.20
2021,04,16,02,30,9.20
2021,04,16,02,31,9.20
2021,04,16,02,32,9.20
2021,04,16,02,33,9.20
2021,04,16,02,34,9.20
2021,04,16,02,35,9.20
2021,04,16,02,36,9.10
2021,04,16,02,37,9.10
2021,04,16,02,38,9.10
2021,04,16,02,39,9.10
2021,04,16,02,40,9.00
2021,04,16,02,41,9.00
2021,04,16,02,42,9.00
2021,04,16,02,43,9.00
2021,04,16,02,44,8.90
2021,04,16,02,45,8.90
2021,04,16,02,46,8.90
2021,04,16,02,47,8.90
2021,04,16,02,48,8.80
2021,04,16,02,49,8.80
2021,04,16,02,50,8.80
2021,04,16,02,51,8.80
2021,04,16,02,52,8.80
2021,04,16,02,53,8.80
2021,04,16,02,54,8.80
2021,04,16,02,55,8.80
2021,04,16,02,56,8.80
2021,04,16,02,57,8.80
2021,04,16,02,58,8.80
2021,04,16,02,59,8.80
2021,04,16,03,00,8.80
2021,04,16,03,01,8.80
2021,04,16,03,02,8.80
2021,04,16,03,03,8.70
2021,04,16,03,04,8.70
2021,04,16,03,05,8.70
2021,04,16,03,06,8.70
2021,04,16,03,07,8.70
2021,04,16,03,08,8.70
2021,04,16,03,09,8.70
2021,04,16,03,10,8.70
2021,04,16,03,11,8.70
2021,04,16,03,12,8.70
2021,04,16,03,13,8.70
2021,04,16,03,14,8.70
2021,04,16,03,15,8.60
2021,04,16,03,16,8.60
2021,04,16,03,17,8.60
2021,04,16,03,18,8.60
2021,04,16,03,19,8.60
2021,04,16,03,20,8.60
2021,04,16,03,21,8.60
2021,04,16,03,22,8.60
2021,04,16,03,23,8.60
2021,04,16,03,24,8.60
2021,04,16,03,25,8.60
2021,04,16,03,26,8.60
2021,04,16,03,27,8.60
2021,04,16,03,28,8.50
2021,04,16,03,29,8.50
2021,04,16,03,30,8.50
2021,04,16,03,31,8.50
2021,04,16,03,32,8.50
2021,04,16,03,33,8.60
2021,04,16,03,34,8.60
2021,04,16,03,35,8.60
2021,04,16,03,36,8.60
2021,04,16,03,37,8.60
2021,04,16,03,38,8.50
2021,04,16,03,39,8.50
2021,04,16,03,40,8.50
2021,04,16,03,41,8.40
2021,04,16,03,42,8.40
2021,04,16,03,43,8.40
2021,04,16,03,44,8.40
2021,04,16,03,45,8.30
2021,04,16,03,46,8.30
2021,04,16,03,47,8.30
2021,04,16,03,48,8.30
2021,04,16,03,49,8.30
2021,04,16,03,50,8.30
2021,04,16,03,51,8.30
2021,04,16,03,52,8.30
2021,04,16,03,53,8.30
2021,04,16,03,54,8.30
2021,04,16,03,55,8.30
2021,04,16,03,56,8.30
2021,04,16,03,57,8.30
2021,04,16,03,58,8.30
2021,04,16,03,59,8.30
2021,04,16,04,00,8.30
2021,04,16,04,01,8.30
2021,04,16,04,02,8.30
2021,04,16,04,03,8.30
2021,04,16,04,04,8.30
2021,04,16,04,05,8.20
2021,04,16,04,06,8.20
2021,04,16,04,07,8.20
2021,04,16,04,08,8.20
2021,04,16,04,09,8.20
2021,04,16,04,10,8.20
2021,04,16,04,11,8.10
2021,04,16,04,12,8.10
2021,04,16,04,13,8.10
2021,04,16,04,14,8.10
2021,04,16,04,15,8.10
2021,04,16,04,16,8.10
2021,04,16,04,17,8.00
2021,04,16,04,18,8.10
2021,04,16,04,19,8.10
2021,04,16,04,20,8.10
2021,04,16,04,21,8.10
2021,04,16,04,22,8.10
2021,04,16,04,23,8.10
2021,04,16,04,24,8.10
2021,04,16,04,25,8.10
2021,04,16,04,26,8.10
2021,04,16,04,27,8.10
2021,04,16,04,28,8.10
2021,04,16,04,29,8.10
2021,04,16,04,30,8.10
2021,04,16,04,31,8.10
2021,04,16,04,32,8.10
2021,04,16,04,33,8.10
2021,04,16,04,34,8.00
2021,04,16,04,35,8.00
2021,04,16,04,36,8.00
2021,04,16,04,37,7.90
2021,04,16,04,38,7.90
2021,04,16,04,39,7.90
2021,04,16,04,40,7.90
2021,04,16,04,41,7.90
2021,04,16,04,42,7.80
2021,04,16,04,43,7.80
2021,04,16,04,44,7.80
2021,04,16,04,45,7.80
2021,04,16,04,46,7.80
2021,04,16,04,47,7.80
2021,04,16,04,48,7.80
2021,04,16,04,49,7.80
2021,04,16,04,50,7.80
2021,04,16,04,51,7.80
2021,04,16,04,52,7.80
2021,04,16,04,53,7.80
2021,04,16,04,54,7.70
2021,04,16,04,55,7.70
2021,04,16,04,56,7.70
2021,04,16,04,57,7.70
2021,04,16,04,58,7.70
2021,04,16,04,59,7.70
2021,04,16,05,00,7.70
2021,04,16,05,01,7.70
2021,04,16,05,02,7.70
2021,04,16,05,03,7.70
2021,04,16,05,04,7.60
2021,04,16,05,05,7.60
2021,04,16,05,06,7.60
2021,04,16,05,07,7.60
2021,04,16,05,08,7.60
2021,04,16,05,09,7.60
2021,04,16,05,10,7.50
2021,04,16,05,11,7.50
2021,04,16,05,12,7.50
2021,04,16,05,13,7.50
2021,04,16,05,14,7.50
2021,04,16,05,15,7.50
2021,04,16,05,16,7.50
2021,04,16,05,17,7.50
2021,04,16,05,18,7.40
2021,04,16,05,19,7.50
2021,04,16,05,20,7.50
2021,04,16,05,21,7.50
2021,04,16,05,22,7.50
2021,04,16,05,23,7.50
2021,04,16,05,24,7.50
2021,04,16,05,25,7.50
2021,04,16,05,26,7.50
2021,04,16,05,27,7.50
2021,04,16,05,28,7.50
2021,04,16,05,29,7.50
2021,04,16,05,30,7.50
2021,04,16,05,31,7.40
2021,04,16,05,32,7.40
2021,04,16,05,33,7.40
2021,04,16,05,34,7.40
2021,04,16,05,35,7.40
2021,04,16,05,36,7.40
2021,04,16,05,37,7.40
2021,04,16,05,38,7.40
2021,04,16,05,39,7.30
2021,04,16,05,40,7.30
2021,04,16,05,41,7.30
2021,04,16,05,42,7.30
2021,04,16,05,43,7.30
2021,04,16,05,44,7.30
2021,04,16,05,45,7.30
2021,04,16,05,46,7.30
2021,04,16,05,47,7.30
2021,04,16,05,48,7.30
2021,04,16,05,49,7.40
2021,04,16,05,50,7.30
2021,04,16,05,51,7.30
2021,04,16,05,52,7.30
2021,04,16,05,53,7.30
2021,04,16,05,54,7.30
2021,04,16,05,55,7.30
2021,04,16,05,56,7.30
2021,04,16,05,57,7.30
2021,04,16,05,58,7.30
2021,04,16,05,59,7.30
2021,04,16,06,00,7.30
2021,04,16,06,01,7.30
2021,04,16,06,02,7.30
2021,04,16,06,03,7.30
2021,04,16,06,04,7.30
2021,04,16,06,05,7.30
2021,04,16,06,06,7.20
2021,04,16,06,07,7.20
2021,04,16,06,08,7.20
2021,04,16,06,09,7.20
2021,04,16,06,10,7.20
2021,04,16,06,11,7.20
2021,04,16,06,12,7.20
2021,04,16,06,13,7.20
2021,04,16,06,14,7.20
2021,04,16,06,15,7.20
2021,04,16,06,16,7.20
2021,04,16,06,17,7.10
2021,04,16,06,18,7.10
2021,04,16,06,19,7.10
2021,04,16,06,20,7.10
2021,04,16,06,21,7.10
2021,04,16,06,22,7.10
2021,04,16,06,23,7.10
2021,04,16,06,24,7.10
2021,04,16,06,25,7.20
2021,04,16,06,26,7.20
2021,04,16,06,27,7.20
2021,04,16,06,28,7.20
2021,04,16,06,29,7.20
2021,04,16,06,30,7.10
2021,04,16,06,31,7.10
2021,04,16,06,32,7.10
2021,04,16,06,33,7.10
2021,04,16,06,34,7.10
2021,04,16,06,35,7.10
2021,04,16,06,36,7.00
2021,04,16,06,37,7.00
2021,04,16,06,38,7.00
2021,04,16,06,39,6.90
2021,04,16,06,40,6.90
2021,04,16,06,41,6.90
2021,04,16,06,42,6.90
2021,04,16,06,43,6.90
2021,04,16,06,44,6.90
2021,04,16,06,45,6.90
2021,04,16,06,46,6.90
2021,04,16,06,47,6.90
2021,04,16,06,48,6.90
2021,04,16,06,49,6.90
2021,04,16,06,50,6.90
2021,04,16,06,51,6.90
2021,04,16,06,52,6.90
2021,04,16,06,53,6.90
2021,04,16,06,54,6.90
2021,04,16,06,55,6.90
2021,04,16,06,56,6.90
2021,04,16,06,57,6.90
2021,04,16,06,58,6.90
2021,04,16,06,59,6.90
2021,04,16,07,00,6.90
2021,04,16,07,01,6.90
2021,04,16,07,02,6.90
2021,04,16,07,03,6.90
2021,04,16,07,04,6.90
2021,04,16,07,05,6.90
2021,04,16,07,06,6.90
2021,04,16,07,07,7.00
2021,04,16,07,08,7.00
2021,04,16,07,09,7.00
2021,04,16,07,10,7.00
2021,04,16,07,11,7.00
2021,04,16,07,12,7.10
2021,04,16,07,13,7.10
2021,04,16,07,14,7.10
2021,04,16,07,15,7.10
2021,04,16,07,16,7.10
2021,04,16,07,17,7.20
2021,04,16,07,18,7.20
2021,04,16,07,19,7.20
2021,04,16,07,20,7.20
2021,04,16,07,21,7.20
2021,04,16,07,22,7.20
2021,04,16,07,23,7.20
2021,04,16,07,24,7.30
2021,04,16,07,25,7.30
2021,04,16,07,26,7.30
2021,04,16,07,27,7.30
2021,04,16,07,28,7.30
2021,04,16,07,29,7.30
2021,04,16,07,30,7.30
2021,04,16,07,31,7.40
2021,04,16,07,32,7.40
2021,04,16,07,33,7.50
2021,04,16,07,34,7.60
2021,04,16,07,35,7.60
2021,04,16,07,36,7.70
2021,04,16,07,37,7.80
2021,04,16,07,38,7.90
2021,04,16,07,39,7.90
2021,04,16,07,40,8.00
2021,04,16,07,41,8.10
2021,04,16,07,42,8.20
2021,04,16,07,43,8.30
2021,04,16,07,44,8.30
2021,04,16,07,45,8.40
2021,04,16,07,46,8.50
2021,04,16,07,47,8.60
2021,04,16,07,48,8.70
2021,04,16,07,49,8.70
2021,04,16,07,50,8.80
2021,04,16,07,51,8.80
2021,04,16,07,52,8.90
2021,04,16,07,53,9.00
2021,04,16,07,54,9.10
2021,04,16,07,55,9.20
2021,04,16,07,56,9.30
2021,04,16,07,57,9.30
2021,04,16,07,58,9.40
2021,04,16,07,59,9.40
2021,04,16,08,00,9.40
2021,04,16,08,01,9.50
2021,04,16,08,02,9.50
2021,04,16,08,03,9.60
2021,04,16,08,04,9.60
2021,04,16,08,05,9.60
2021,04,16,08,06,9.60
2021,04,16,08,07,9.60
2021,04,16,08,08,9.70
2021,04,16,08,09,9.70
2021,04,16,08,10,9.80
2021,04,16,08,11,10.00
2021,04,16,08,12,10.20
2021,04,16,08,13,10.30
2021,04,16,08,14,10.40
2021,04,16,08,15,10.50
2021,04,16,08,16,10.60
2021,04,16,08,17,10.60
2021,04,16,08,18,10.60
2021,04,16,08,19,10.70
2021,04,16,08,20,10.70
2021,04,16,08,21,10.70
2021,04,16,08,22,10.70
2021,04,16,08,23,10.70
2021,04,16,08,24,10.80
2021,04,16,08,25,10.90
2021,04,16,08,26,11.10
2021,04,16,08,27,11.30
2021,04,16,08,28,11.70
2021,04,16,08,29,11.90
2021,04,16,08,30,12.20
2021,04,16,08,31,12.50
2021,04,16,08,32,12.60
2021,04,16,08,33,12.70
2021,04,16,08,34,12.80
2021,04,16,08,35,12.90
2021,04,16,08,36,13.00
2021,04,16,08,37,13.10
2021,04,16,08,38,13.10
2021,04,16,08,39,13.20
2021,04,16,08,40,13.20
2021,04,16,08,41,13.20
2021,04,16,08,42,13.30
2021,04,16,08,43,13.30
2021,04,16,08,44,13.30
2021,04,16,08,45,13.30
2021,04,16,08,46,13.30
2021,04,16,08,47,13.30
2021,04,16,08,48,13.40
2021,04,16,08,49,13.50
2021,04,16,08,50,13.60
2021,04,16,08,51,13.70
2021,04,16,08,52,13.70
2021,04,16,08,53,13.80
2021,04,16,08,54,13.90
2021,04,16,08,55,14.00
2021,04,16,08,56,14.10
2021,04,16,08,57,14.30
2021,04,16,08,58,14.40
2021,04,16,08,59,14.40
2021,04,16,09,00,14.50
2021,04,16,09,01,14.60
2021,04,16,09,02,14.60
2021,04,16,09,03,14.60
2021,04,16,09,04,14.70
2021,04,16,09,05,14.80
2021,04,16,09,06,14.80
2021,04,16,09,07,14.80
2021,04,16,09,08,14.80
2021,04,16,09,09,14.90
2021,04,16,09,10,14.90
2021,04,16,09,11,14.90
2021,04,16,09,12,15.00
2021,04,16,09,13,15.00
2021,04,16,09,14,15.10
2021,04,16,09,15,15.10
2021,04,16,09,16,15.10
2021,04,16,09,17,15.20
2021,04,16,09,18,15.20
2021,04,16,09,19,15.20
2021,04,16,09,20,15.20
2021,04,16,09,21,15.30
2021,04,16,09,22,15.30
2021,04,16,09,23,15.30
2021,04,16,09,24,15.30
2021,04,16,09,25,15.30
2021,04,16,09,26,15.30
2021,04,16,09,27,15.30
2021,04,16,09,28,15.40
2021,04,16,09,29,15.40
2021,04,16,09,30,15.40
2021,04,16,09,31,15.50
2021,04,16,09,32,15.60
2021,04,16,09,33,15.60
2021,04,16,09,34,15.70
2021,04,16,09,35,15.70
2021,04,16,09,36,15.70
2021,04,16,09,37,15.70
2021,04,16,09,38,15.70
2021,04,16,09,39,15.70
2021,04,16,09,40,15.70
2021,04,16,09,41,15.70
2021,04,16,09,42,15.70
2021,04,16,09,43,15.70
2021,04,16,09,44,15.80
2021,04,16,09,45,15.80
2021,04,16,09,46,15.90
2021,04,16,09,47,15.90
2021,04,16,09,48,15.90
2021,04,16,09,49,15.90
2021,04,16,09,50,16.00
2021,04,16,09,51,16.00
2021,04,16,09,52,16.00
2021,04,16,09,53,16.00
2021,04,16,09,54,16.00
2021,04,16,09,55,16.00
2021,04,16,09,56,16.00
2021,04,16,09,57,16.00
2021,04,16,09,58,16.10
2021,04,16,09,59,16.10
2021,04,16,10,00,16.10
2021,04,16,10,01,16.10
2021,04,16,10,02,16.20
2021,04,16,10,03,16.20
2021,04,16,10,04,16.20
2021,04,16,10,05,16.20
2021,04,16,10,06,16.20
2021,04,16,10,07,16.20
2021,04,16,10,08,16.20
2021,04,16,10,09,16.30
2021,04,16,10,10,16.30
2021,04,16,10,11,16.40
2021,04,16,10,12,16.40
2021,04,16,10,13,16.50
2021,04,16,10,14,16.60
2021,04,16,10,15,16.60
2021,04,16,10,16,16.60
2021,04,16,10,17,16.70
2021,04,16,10,18,16.70
2021,04,16,10,19,16.80
2021,04,16,10,20,16.80
2021,04,16,10,21,16.90
2021,04,16,10,22,16.90
2021,04,16,10,23,16.90
2021,04,16,10,24,16.90
2021,04,16,10,25,16.90
2021,04,16,10,26,16.90
2021,04,16,10,27,17.00
2021,04,16,10,28,17.00
2021,04,16,10,29,17.10
2021,04,16,10,30,17.10
2021,04,16,10,31,17.20
2021,04,16,10,32,17.20
2021,04,16,10,33,17.20
2021,04,16,10,34,17.20
2021,04,16,10,35,17.20
2021,04,16,10,36,17.20
2021,04,16,10,37,17.30
2021,04,16,10,38,17.30
2021,04,16,10,39,17.40
2021,04,16,10,40,17.50
2021,04,16,10,41,17.50
2021,04,16,10,42,17.60
2021,04,16,10,43,17.60
2021,04,16,10,44,17.70
2021,04,16,10,45,17.70
2021,04,16,10,46,17.70
2021,04,16,10,47,17.80
2021,04,16,10,48,17.80
2021,04,16,10,49,17.80
2021,04,16,10,50,17.80
2021,04,16,10,51,17.80
2021,04,16,10,52,17.90
2021,04,16,10,53,17.90
2021,04,16,10,54,17.90
2021,04,16,10,55,18.00
2021,04,16,10,56,17.90
2021,04,16,10,57,17.90
2021,04,16,10,58,17.90
2021,04,16,10,59,17.90
2021,04,16,11,00,17.90
2021,04,16,11,01,18.00
2021,04,16,11,02,18.00
2021,04,16,11,03,18.10
2021,04,16,11,04,18.10
2021,04,16,11,05,18.10
2021,04,16,11,06,18.20
2021,04,16,11,07,18.20
2021,04,16,11,08,18.20
2021,04,16,11,09,18.20
2021,04,16,11,10,18.30
2021,04,16,11,11,18.30
2021,04,16,11,12,18.20
2021,04,16,11,13,18.20
2021,04,16,11,14,18.20
2021,04,16,11,15,18.20
2021,04,16,11,16,18.20
2021,04,16,11,17,18.30
2021,04,16,11,18,18.30
2021,04,16,11,19,18.40
2021,04,16,11,20,18.50
2021,04,16,11,21,18.60
2021,04,16,11,22,18.70
2021,04,16,11,23,18.70
2021,04,16,11,24,18.90
2021,04,16,11,25,19.00
2021,04,16,11,26,19.20
2021,04,16,11,27,19.40
2021,04,16,11,28,19.40
2021,04,16,11,29,19.40
2021,04,16,11,30,19.40
2021,04,16,11,31,19.30
2021,04,16,11,32,19.20
2021,04,16,11,33,19.20
2021,04,16,11,34,19.10
2021,04,16,11,35,19.10
2021,04,16,11,36,19.20
2021,04,16,11,37,19.20
2021,04,16,11,38,19.20
2021,04,16,11,39,19.20
2021,04,16,11,40,19.20
2021,04,16,11,41,19.20
2021,04,16,11,42,19.20
2021,04,16,11,43,19.20
2021,04,16,11,44,19.20
2021,04,16,11,45,19.30
2021,04,16,11,46,19.30
2021,04,16,11,47,19.30
2021,04,16,11,48,19.30
2021,04,16,11,49,19.30
2021,04,16,11,50,19.30
2021,04,16,11,51,19.30
2021,04,16,11,52,19.30
2021,04,16,11,53,19.30
2021,04,16,11,54,19.30
2021,04,16,11,55,19.30
2021,04,16,11,56,19.30
2021,04,16,11,57,19.30
2021,04,16,11,58,19.30
2021,04,16,11,59,19.30
2021,04,16,12,00,19.30
2021,04,16,12,01,19.30
2021,04,16,12,02,19.30
2021,04,16,12,03,19.40
2021,04,16,12,04,19.40
2021,04,16,12,05,19.40
2021,04,16,12,06,19.40
2021,04,16,12,07,19.40
2021,04,16,12,08,19.40
2021,04,16,12,09,19.30
2021,04,16,12,10,19.30
2021,04,16,12,11,19.40
2021,04,16,12,12,19.50
2021,04,16,12,13,19.50
2021,04,16,12,14,19.60
2021,04,16,12,15,19.60
2021,04,16,12,16,19.70
2021,04,16,12,17,19.70
2021,04,16,12,18,19.70
2021,04,16,12,19,19.70
2021,04,16,12,20,19.70
2021,04,16,12,21,19.70
2021,04,16,12,22,19.80
2021,04,16,12,23,19.70
2021,04,16,12,24,19.70
2021,04,16,12,25,19.60
2021,04,16,12,26,19.50
2021,04,16,12,27,19.40
2021,04,16,12,28,19.40
2021,04,16,12,29,19.30
2021,04,16,12,30,19.30
2021,04,16,12,31,19.30
2021,04,16,12,32,19.40
2021,04,16,12,33,19.40
2021,04,16,12,34,19.40
2021,04,16,12,35,19.40
2021,04,16,12,36,19.40
2021,04,16,12,37,19.50
2021,04,16,12,38,19.50
2021,04,16,12,39,19.60
2021,04,16,12,40,19.70
2021,04,16,12,41,19.70
2021,04,16,12,42,19.70
2021,04,16,12,43,19.70
2021,04,16,12,44,19.80
2021,04,16,12,45,19.80
2021,04,16,12,46,19.80
2021,04,16,12,47,19.90
2021,04,16,12,48,19.90
2021,04,16,12,49,19.90
2021,04,16,12,50,19.90
2021,04,16,12,51,19.90
2021,04,16,12,52,19.90
2021,04,16,12,53,19.90
2021,04,16,12,54,20.00
2021,04,16,12,55,20.00
2021,04,16,12,56,20.00
2021,04,16,12,57,20.00
2021,04,16,12,58,20.00
2021,04,16,12,59,20.00
2021,04,16,13,00,20.10
2021,04,16,13,01,20.10
2021,04,16,13,02,20.10
2021,04,16,13,03,20.20
2021,04,16,13,04,20.20
2021,04,16,13,05,20.30
2021,04,16,13,06,20.40
2021,04,16,13,07,20.50
2021,04,16,13,08,20.50
2021,04,16,13,09,20.60
2021,04,16,13,10,20.70
2021,04,16,13,11,20.80
2021,04,16,13,12,20.80
2021,04,16,13,13,20.80
2021,04,16,13,14,20.80
2021,04,16,13,15,20.80
2021,04,16,13,16,20.70
2021,04,16,13,17,20.60
2021,04,16,13,18,20.60
2021,04,16,13,19,20.60
2021,04,16,13,20,20.60
2021,04,16,13,21,20.70
2021,04,16,13,22,20.80
2021,04,16,13,23,20.80
2021,04,16,13,24,20.80
2021,04,16,13,25,20.80
2021,04,16,13,26,20.80
2021,04,16,13,27,20.80
2021,04,16,13,28,20.70
2021,04,16,13,29,20.70
2021,04,16,13,30,20.80
2021,04,16,13,31,20.80
2021,04,16,13,32,20.80
2021,04,16,13,33,20.80
2021,04,16,13,34,20.90
2021,04,16,13,35,20.90
2021,04,16,13,36,20.90
2021,04,16,13,37,21.00
2021,04,16,13,38,21.00
2021,04,16,13,39,21.10
2021,04,16,13,40,21.10
2021,04,16,13,41,21.10
2021,04,16,13,42,21.20
2021,04,16,13,43,21.10
2021,04,16,13,44,21.00
2021,04,16,13,45,20.90
2021,04,16,13,46,20.80
2021,04,16,13,47,20.80
2021,04,16,13,48,20.80
2021,04,16,13,49,20.80
2021,04,16,13,50,20.80
2021,04,16,13,51,20.80
2021,04,16,13,52,20.80
2021,04,16,13,53,20.80
2021,04,16,13,54,20.80
2021,04,16,13,55,20.90
2021,04,16,13,56,20.90
2021,04,16,13,57,21.00
2021,04,16,13,58,21.00
2021,04,16,13,59,21.10
2021,04,16,14,00,21.20
2021,04,16,14,01,21.20
2021,04,16,14,02,21.30
2021,04,16,14,03,21.30
2021,04,16,14,04,21.30
2021,04,16,14,05,21.30
2021,04,16,14,06,21.20
2021,04,16,14,07,21.20
2021,04,16,14,08,21.20
2021,04,16,14,09,21.20
2021,04,16,14,10,21.10
2021,04,16,14,11,21.20
2021,04,16,14,12,21.20
2021,04,16,14,13,21.30
2021,04,16,14,14,21.40
2021,04,16,14,15,21.50
2021,04,16,14,16,21.50
2021,04,16,14,17,21.60
2021,04,16,14,18,21.50
2021,04,16,14,19,21.50
2021,04,16,14,20,21.40
2021,04,16,14,21,21.40
2021,04,16,14,22,21.30
2021,04,16,14,23,21.20
2021,04,16,14,24,21.20
2021,04,16,14,25,21.20
2021,04,16,14,26,21.20
2021,04,16,14,27,21.30
2021,04,16,14,28,21.30
2021,04,16,14,29,21.30
2021,04,16,14,30,21.30
2021,04,16,14,31,21.20
2021,04,16,14,32,21.20
2021,04,16,14,33,21.20
2021,04,16,14,34,21.30
2021,04,16,14,35,21.30
2021,04,16,14,36,21.30
2021,04,16,14,37,21.30
2021,04,16,14,38,21.30
2021,04,16,14,39,21.30
2021,04,16,14,40,21.30
2021,04,16,14,41,21.30
2021,04,16,14,42,21.40
2021,04,16,14,43,21.40
2021,04,16,14,44,21.50
2021,04,16,14,45,21.60
2021,04,16,14,46,21.60
2021,04,16,14,47,21.60
2021,04,16,14,48,21.60
2021,04,16,14,49,21.70
2021,04,16,14,50,21.70
2021,04,16,14,51,21.70
2021,04,16,14,52,21.80
2021,04,16,14,53,21.80
2021,04,16,14,54,21.80
2021,04,16,14,55,21.80
2021,04,16,14,56,21.90
2021,04,16,14,57,21.90
2021,04,16,14,58,21.90
2021,04,16,14,59,21.90
2021,04,16,15,00,21.90
2021,04,16,15,01,21.80
2021,04,16,15,02,21.80
2021,04,16,15,03,21.70
2021,04,16,15,04,21.70
2021,04,16,15,05,21.70
2021,04,16,15,06,21.80
2021,04,16,15,07,21.80
2021,04,16,15,08,21.80
2021,04,16,15,09,21.90
2021,04,16,15,10,21.90
2021,04,16,15,11,22.00
2021,04,16,15,12,22.00
2021,04,16,15,13,22.00
2021,04,16,15,14,22.00
2021,04,16,15,15,21.90
2021,04,16,15,16,21.90
2021,04,16,15,17,21.90
2021,04,16,15,18,21.90
2021,04,16,15,19,22.00
2021,04,16,15,20,22.00
2021,04,16,15,21,22.00
2021,04,16,15,22,22.00
2021,04,16,15,23,21.90
2021,04,16,15,24,21.90
2021,04,16,15,25,21.80
2021,04,16,15,26,21.80
2021,04,16,15,27,21.80
2021,04,16,15,28,21.80
2021,04,16,15,29,21.80
2021,04,16,15,30,21.80
2021,04,16,15,31,21.80
2021,04,16,15,32,21.80
2021,04,16,15,33,21.90
2021,04,16,15,34,21.90
2021,04,16,15,35,21.90
2021,04,16,15,36,21.90
2021,04,16,15,37,21.90
2021,04,16,15,38,22.00
2021,04,16,15,39,22.10
2021,04,16,15,40,22.20
2021,04,16,15,41,22.30
2021,04,16,15,42,22.40
2021,04,16,15,43,22.40
2021,04,16,15,44,22.50
2021,04,16,15,45,22.60
2021,04,16,15,46,22.60
2021,04,16,15,47,22.70
2021,04,16,15,48,22.70
2021,04,16,15,49,22.80
2021,04,16,15,50,22.80
2021,04,16,15,51,22.80
2021,04,16,15,52,22.90
2021,04,16,15,53,22.90
2021,04,16,15,54,22.80
2021,04,16,15,55,22.70
2021,04,16,15,56,22.60
2021,04,16,15,57,22.50
2021,04,16,15,58,22.40
2021,04,16,15,59,22.40
2021,04,16,16,00,22.40
2021,04,16,16,01,22.40
2021,04,16,16,02,22.30
2021,04,16,16,03,22.20
2021,04,16,16,04,22.10
2021,04,16,16,05,22.10
2021,04,16,16,06,22.10
2021,04,16,16,07,22.00
2021,04,16,16,08,21.90
2021,04,16,16,09,21.90
2021,04,16,16,10,21.80
2021,04,16,16,11,21.90
2021,04,16,16,12,21.90
2021,04,16,16,13,21.80
2021,04,16,16,14,21.80
2021,04,16,16,15,21.80
2021,04,16,16,16,21.70
2021,04,16,16,17,21.70
2021,04,16,16,18,21.70
2021,04,16,16,19,21.70
2021,04,16,16,20,21.70
2021,04,16,16,21,21.60
2021,04,16,16,22,21.60
2021,04,16,16,23,21.60
2021,04,16,16,24,21.50
2021,04,16,16,25,21.50
2021,04,16,16,26,21.50
2021,04,16,16,27,21.50
2021,04,16,16,28,21.50
2021,04,16,16,29,21.50
2021,04,16,16,30,21.60
2021,04,16,16,31,21.60
2021,04,16,16,32,21.70
2021,04,16,16,33,21.70
2021,04,16,16,34,21.80
2021,04,16,16,35,21.80
2021,04,16,16,36,21.80
2021,04,16,16,37,21.90
2021,04,16,16,38,21.90
2021,04,16,16,39,21.90
2021,04,16,16,40,22.00
2021,04,16,16,41,22.00
2021,04,16,16,42,22.10
2021,04,16,16,43,22.10
2021,04,16,16,44,22.10
2021,04,16,16,45,22.10
2021,04,16,16,46,22.00
2021,04,16,16,47,22.00
2021,04,16,16,48,22.00
2021,04,16,16,49,22.00
2021,04,16,16,50,22.00
2021,04,16,16,51,22.10
2021,04,16,16,52,22.10
2021,04,16,16,53,22.10
2021,04,16,16,54,22.10
2021,04,16,16,55,22.10
2021,04,16,16,56,22.00
2021,04,16,16,57,22.00
2021,04,16,16,58,21.90
2021,04,16,16,59,21.90
2021,04,16,17,00,21.80
2021,04,16,17,01,21.80
2021,04,16,17,02,21.70
2021,04,16,17,03,21.60
2021,04,16,17,04,21.50
2021,04,16,17,05,21.50
2021,04,16,17,06,21.40
2021,04,16,17,07,21.30
2021,04,16,17,08,21.20
2021,04,16,17,09,21.20
2021,04,16,17,10,21.10
2021,04,16,17,11,21.00
2021,04,16,17,12,21.00
2021,04,16,17,13,20.90
2021,04,16,17,14,20.90
2021,04,16,17,15,20.80
2021,04,16,17,16,20.80
2021,04,16,17,17,20.80
2021,04,16,17,18,20.80
2021,04,16,17,19,20.80
2021,04,16,17,20,20.80
2021,04,16,17,21,20.80
2021,04,16,17,22,20.80
2021,04,16,17,23,20.80
2021,04,16,17,24,20.80
2021,04,16,17,25,20.90
2021,04,16,17,26,21.00
2021,04,16,17,27,21.10
2021,04,16,17,28,21.20
2021,04,16,17,29,21.30
2021,04,16,17,30,21.40
2021,04,16,17,31,21.50
2021,04,16,17,32,21.50
2021,04,16,17,33,21.50
2021,04,16,17,34,21.40
2021,04,16,17,35,21.40
2021,04,16,17,36,21.30
2021,04,16,17,37,21.20
2021,04,16,17,38,21.20